| time (UTC) | temp F | wind direction | speed MPH | gust MPH | rain 1hr in | rain 24hr in | rain mn in | humidity % | barometer mb |
| 20260508012845 | 52 | 278 | 0.0 | 4.0 | 0.00 | 0.00 | 0.00 | 90 | 1014.6 |
| 20260508012328 | 52 | 279 | 0.0 | 4.0 | 0.00 | 0.00 | 0.00 | 90 | 1014.7 |
| 20260508011825 | 52 | 280 | 0.0 | 4.0 | 0.00 | 0.00 | 0.00 | 90 | 1014.7 |
| 20260508010325 | 52 | 276 | 0.0 | 3.0 | 0.00 | 0.02 | 0.00 | 90 | 1014.9 |
| 20260508005820 | 52 | 273 | 0.0 | 6.0 | 0.00 | 0.03 | 0.00 | 90 | 1014.8 |
| 20260508005319 | 52 | 274 | 0.0 | 6.0 | 0.00 | 0.03 | 0.00 | 90 | 1014.8 |
| 20260508004816 | 51 | 274 | 0.0 | 3.0 | 0.00 | 0.03 | 0.00 | 90 | 1014.9 |
| 20260508004315 | 51 | 269 | 0.0 | 5.0 | 0.00 | 0.03 | 0.00 | 90 | 1014.8 |
| 20260508003813 | 51 | 285 | 0.0 | 5.0 | 0.00 | 0.03 | 0.00 | 90 | 1014.9 |
| 20260508003312 | 51 | 274 | 1.0 | 5.0 | 0.00 | 0.05 | 0.00 | 90 | 1015.0 |
| 20260508002811 | 51 | 277 | 1.0 | 5.0 | 0.00 | 0.06 | 0.00 | 90 | 1015.0 |
| 20260508002310 | 51 | 271 | 1.0 | 5.0 | 0.00 | 0.06 | 0.00 | 89 | 1015.1 |
| 20260508001809 | 51 | 274 | 1.0 | 5.0 | 0.00 | 0.07 | 0.00 | 89 | 1015.1 |
| 20260508001308 | 51 | 262 | 1.0 | 5.0 | 0.00 | 0.08 | 0.00 | 89 | 1015.2 |
| 20260508000307 | 52 | 267 | 0.0 | 4.0 | 0.00 | 0.09 | 0.00 | 89 | 1015.2 |
| 20260507235805 | 52 | 270 | 0.0 | 1.0 | 0.00 | 0.09 | 0.00 | 89 | 1015.2 |
| 20260507235307 | 52 | 267 | 0.0 | 2.0 | 0.00 | 0.09 | 0.00 | 89 | 1015.2 |
| 20260507233757 | 52 | 274 | 1.0 | 4.0 | 0.00 | 0.09 | 0.00 | 89 | 1015.4 |
| 20260507233252 | 52 | 270 | 0.0 | 4.0 | 0.00 | 0.09 | 0.00 | 89 | 1015.4 |
| 20260507232754 | 52 | 266 | 1.0 | 5.0 | 0.00 | 0.09 | 0.00 | 89 | 1015.4 |
| 20260507232252 | 52 | 281 | 1.0 | 5.0 | 0.00 | 0.10 | 0.00 | 88 | 1015.5 |
| 20260507231752 | 52 | 272 | 1.0 | 5.0 | 0.00 | 0.10 | 0.00 | 88 | 1015.5 |
| 20260507231251 | 52 | 279 | 0.0 | 5.0 | 0.00 | 0.10 | 0.00 | 88 | 1015.6 |
| 20260507230750 | 53 | 266 | 0.0 | 4.0 | 0.00 | 0.10 | 0.00 | 87 | 1015.7 |
| 20260507230249 | 53 | 270 | 1.0 | 5.0 | 0.00 | 0.10 | 0.00 | 87 | 1015.7 |
| 20260507225748 | 54 | 277 | 0.0 | 5.0 | 0.00 | 0.10 | 0.00 | 87 | 1016.1 |
| 20260507225247 | 54 | 265 | 0.0 | 4.0 | 0.00 | 0.10 | 0.00 | 88 | 1016.1 |
| 20260507224746 | 54 | 266 | 0.0 | 4.0 | 0.00 | 0.10 | 0.00 | 88 | 1016.3 |
| 20260507224246 | 53 | 266 | 0.0 | 3.0 | 0.00 | 0.10 | 0.00 | 88 | 1016.2 |
| 20260507223745 | 53 | 269 | 1.0 | 4.0 | 0.00 | 0.10 | 0.00 | 88 | 1016.3 |
| 20260507223242 | 53 | 263 | 1.0 | 4.0 | 0.00 | 0.10 | 0.00 | 88 | 1016.4 |
| 20260507222745 | 53 | 270 | 0.0 | 4.0 | 0.00 | 0.10 | 0.00 | 88 | 1016.3 |
| 20260507222242 | 53 | 264 | 0.0 | 4.0 | 0.00 | 0.10 | 0.00 | 88 | 1016.2 |
| 20260507221237 | 53 | 276 | 0.0 | 4.0 | 0.00 | 0.10 | 0.00 | 87 | 1016.1 |
| 20260507220749 | 53 | 281 | 1.0 | 4.0 | 0.00 | 0.10 | 0.00 | 87 | 1016.1 |
| 20260507215736 | 54 | 289 | 0.0 | 5.0 | 0.00 | 0.10 | 0.10 | 86 | 1016.1 |
| 20260507215237 | 54 | 272 | 1.0 | 5.0 | 0.00 | 0.10 | 0.10 | 85 | 1016.2 |
| 20260507214736 | 55 | 276 | 1.0 | 5.0 | 0.00 | 0.10 | 0.10 | 85 | 1016.0 |
| 20260507214238 | 55 | 269 | 0.0 | 4.0 | 0.00 | 0.10 | 0.10 | 85 | 1016.0 |
| 20260507213735 | 56 | 269 | 0.0 | 0.0 | 0.00 | 0.10 | 0.10 | 85 | 1016.0 |
| 20260507213232 | 56 | 269 | 0.0 | 0.0 | 0.00 | 0.10 | 0.10 | 85 | 1016.0 |
| 20260507212733 | 56 | 269 | 0.0 | 0.0 | 0.00 | 0.10 | 0.10 | 85 | 1016.0 |
| 20260507212233 | 56 | 269 | 0.0 | 0.0 | 0.00 | 0.10 | 0.10 | 85 | 1016.1 |
| 20260507211731 | 56 | 269 | 0.0 | 5.0 | 0.00 | 0.10 | 0.10 | 85 | 1016.0 |
| 20260507211229 | 56 | 274 | 0.0 | 5.0 | 0.00 | 0.10 | 0.10 | 85 | 1016.0 |
| 20260507210731 | 56 | 274 | 0.0 | 3.0 | 0.00 | 0.10 | 0.10 | 85 | 1016.0 |
| 20260507210228 | 56 | 274 | 1.0 | 4.0 | 0.00 | 0.10 | 0.10 | 85 | 1016.1 |
| 20260507205727 | 56 | 282 | 0.0 | 4.0 | 0.00 | 0.10 | 0.10 | 84 | 1016.0 |
| 20260507205226 | 57 | 266 | 0.0 | 1.0 | 0.00 | 0.10 | 0.10 | 84 | 1016.0 |
| 20260507204727 | 57 | 261 | 0.0 | 1.0 | 0.00 | 0.10 | 0.10 | 84 | 1016.0 |
| 20260507204227 | 57 | 248 | 0.0 | 3.0 | 0.00 | 0.10 | 0.10 | 84 | 1016.0 |
| 20260507203727 | 57 | 246 | 1.0 | 3.0 | 0.00 | 0.10 | 0.10 | 84 | 1015.8 |
| 20260507203226 | 57 | 270 | 1.0 | 3.0 | 0.00 | 0.10 | 0.10 | 83 | 1015.8 |
| 20260507202726 | 58 | 269 | 0.0 | 3.0 | 0.00 | 0.10 | 0.10 | 84 | 1015.8 |
| 20260507202221 | 58 | 264 | 0.0 | 0.0 | 0.00 | 0.10 | 0.10 | 84 | 1015.8 |
| 20260507201714 | 58 | 264 | 0.0 | 0.0 | 0.00 | 0.10 | 0.10 | 83 | 1015.8 |
| 20260507201210 | 58 | 264 | 0.0 | 0.0 | 0.00 | 0.10 | 0.10 | 83 | 1015.8 |
| 20260507200702 | 58 | 264 | 0.0 | 0.0 | 0.00 | 0.10 | 0.10 | 82 | 1015.8 |
| 20260507200157 | 58 | 264 | 0.0 | 3.0 | 0.00 | 0.10 | 0.10 | 82 | 1016.0 |
| 20260507195146 | 59 | 273 | 0.0 | 1.0 | 0.00 | 0.10 | 0.10 | 81 | 1015.7 |
| 20260507194638 | 59 | 273 | 0.0 | 4.0 | 0.00 | 0.10 | 0.10 | 81 | 1015.7 |
| 20260507194133 | 60 | 274 | 0.0 | 4.0 | 0.00 | 0.10 | 0.10 | 80 | 1015.7 |
| 20260507193626 | 60 | 269 | 0.0 | 4.0 | 0.00 | 0.10 | 0.10 | 80 | 1015.7 |
| 20260507193120 | 61 | 262 | 0.0 | 3.0 | 0.00 | 0.10 | 0.10 | 80 | 1015.7 |
| 20260507192615 | 61 | 262 | 0.0 | 3.0 | 0.00 | 0.10 | 0.10 | 80 | 1015.6 |
| 20260507192108 | 61 | 261 | 0.0 | 3.0 | 0.00 | 0.10 | 0.10 | 79 | 1015.6 |
| 20260507191603 | 61 | 265 | 0.0 | 3.0 | 0.00 | 0.10 | 0.10 | 78 | 1015.6 |
| 20260507191056 | 62 | 270 | 0.0 | 2.0 | 0.00 | 0.10 | 0.10 | 77 | 1015.5 |
| 20260507190549 | 62 | 273 | 0.0 | 0.0 | 0.00 | 0.10 | 0.10 | 76 | 1015.5 |
| 20260507190058 | 62 | 273 | 0.0 | 0.0 | 0.00 | 0.10 | 0.10 | 75 | 1015.5 |
| 20260507185540 | 63 | 273 | 0.0 | 0.0 | 0.00 | 0.10 | 0.10 | 75 | 1015.5 |
| 20260507185033 | 63 | 273 | 0.0 | 0.0 | 0.00 | 0.10 | 0.10 | 74 | 1015.4 |
| 20260507184523 | 64 | 274 | 0.0 | 1.0 | 0.00 | 0.10 | 0.10 | 74 | 1015.4 |
| 20260507184018 | 64 | 278 | 0.0 | 0.0 | 0.00 | 0.10 | 0.10 | 74 | 1015.5 |
| 20260507183514 | 65 | 278 | 0.0 | 0.0 | 0.00 | 0.10 | 0.10 | 73 | 1015.5 |
| 20260507183006 | 65 | 281 | 0.0 | 3.0 | 0.00 | 0.10 | 0.10 | 73 | 1015.6 |
| 20260507182500 | 66 | 281 | 0.0 | 3.0 | 0.00 | 0.10 | 0.10 | 72 | 1015.5 |
| 20260507181954 | 66 | 229 | 0.0 | 0.0 | 0.00 | 0.10 | 0.10 | 70 | 1015.5 |
| 20260507181454 | 67 | 229 | 0.0 | 0.0 | 0.00 | 0.10 | 0.10 | 69 | 1015.5 |
| 20260507180944 | 67 | 229 | 0.0 | 1.0 | 0.00 | 0.10 | 0.10 | 68 | 1015.4 |
| 20260507180436 | 68 | 229 | 0.0 | 1.0 | 0.00 | 0.10 | 0.10 | 67 | 1015.3 |
| 20260507175425 | 69 | 224 | 0.0 | 0.0 | 0.00 | 0.10 | 0.10 | 65 | 1015.3 |
| 20260507174921 | 70 | 224 | 0.0 | 0.0 | 0.00 | 0.10 | 0.10 | 65 | 1015.3 |
| 20260507174411 | 70 | 224 | 0.0 | 0.0 | 0.00 | 0.10 | 0.10 | 63 | 1015.2 |
| 20260507173908 | 70 | 224 | 0.0 | 0.0 | 0.00 | 0.10 | 0.10 | 62 | 1015.2 |
| 20260507173400 | 71 | 224 | 0.0 | 0.0 | 0.00 | 0.10 | 0.10 | 61 | 1015.2 |
| 20260507172348 | 72 | 224 | 0.0 | 0.0 | 0.00 | 0.10 | 0.10 | 60 | 1015.1 |
| 20260507171844 | 72 | 224 | 0.0 | 0.0 | 0.00 | 0.10 | 0.10 | 60 | 1015.1 |
| 20260507171337 | 73 | 224 | 0.0 | 0.0 | 0.00 | 0.10 | 0.10 | 55 | 1015.1 |
| 20260507170834 | 73 | 229 | 0.0 | 0.0 | 0.00 | 0.10 | 0.10 | 53 | 1015.1 |
| 20260507170326 | 73 | 229 | 0.0 | 0.0 | 0.00 | 0.10 | 0.10 | 53 | 1015.1 |
| 20260507165826 | 73 | 229 | 0.0 | 0.0 | 0.00 | 0.10 | 0.10 | 52 | 1015.1 |
| 20260507165326 | 73 | 229 | 0.0 | 0.0 | 0.00 | 0.10 | 0.10 | 53 | 1015.1 |
| 20260507164828 | 74 | 229 | 0.0 | 1.0 | 0.00 | 0.10 | 0.10 | 53 | 1015.1 |
| 20260507164324 | 74 | 228 | 0.0 | 1.0 | 0.00 | 0.10 | 0.10 | 53 | 1015.0 |
| 20260507163822 | 74 | 229 | 0.0 | 0.0 | 0.00 | 0.10 | 0.10 | 53 | 1015.0 |
| 20260507163323 | 74 | 228 | 0.0 | 3.0 | 0.00 | 0.10 | 0.10 | 52 | 1015.0 |
| 20260507162822 | 74 | 220 | 0.0 | 3.0 | 0.00 | 0.10 | 0.10 | 55 | 1015.0 |
| 20260507162322 | 73 | 150 | 0.0 | 0.0 | 0.00 | 0.10 | 0.10 | 56 | 1015.1 |
| 20260507161820 | 73 | 134 | 0.0 | 0.0 | 0.00 | 0.10 | 0.10 | 57 | 1015.0 |
| 20260507161322 | 73 | 134 | 0.0 | 2.0 | 0.00 | 0.10 | 0.10 | 59 | 1015.0 |
| 20260507160821 | 73 | 101 | 0.0 | 2.0 | 0.00 | 0.10 | 0.10 | 61 | 1015.0 |
| 20260507160319 | 73 | 101 | 0.0 | 2.0 | 0.00 | 0.10 | 0.10 | 59 | 1015.1 |
| 20260507155318 | 73 | 25 | 0.0 | 0.0 | 0.00 | 0.10 | 0.10 | 56 | 1015.2 |
| 20260507154819 | 73 | 24 | 0.0 | 0.0 | 0.00 | 0.10 | 0.10 | 54 | 1015.1 |
| 20260507154318 | 73 | 24 | 0.0 | 0.0 | 0.00 | 0.10 | 0.10 | 54 | 1015.1 |
| 20260507153316 | 73 | 1 | 0.0 | 0.0 | 0.00 | 0.10 | 0.10 | 56 | 1015.1 |
| 20260507152814 | 73 | 1 | 0.0 | 0.0 | 0.00 | 0.10 | 0.10 | 55 | 1015.1 |
| 20260507152313 | 73 | 0 | 0.0 | 0.0 | 0.00 | 0.10 | 0.10 | 56 | 1015.2 |
| 20260507151813 | 73 | 1 | 0.0 | 0.0 | 0.00 | 0.10 | 0.10 | 56 | 1015.1 |
| 20260507151312 | 74 | 1 | 0.0 | 0.0 | 0.00 | 0.10 | 0.10 | 54 | 1015.2 |
| 20260507150310 | 74 | 1 | 0.0 | 0.0 | 0.00 | 0.10 | 0.10 | 54 | 1015.2 |
| 20260507145810 | 75 | 1 | 0.0 | 0.0 | 0.00 | 0.10 | 0.10 | 54 | 1015.2 |
| 20260507145310 | 75 | 0 | 0.0 | 1.0 | 0.00 | 0.10 | 0.10 | 55 | 1015.2 |
| 20260507144310 | 74 | 80 | 0.0 | 0.0 | 0.00 | 0.10 | 0.10 | 55 | 1015.3 |
| 20260507143810 | 74 | 96 | 0.0 | 2.0 | 0.00 | 0.10 | 0.10 | 57 | 1015.4 |
| 20260507143306 | 73 | 96 | 0.0 | 5.0 | 0.00 | 0.10 | 0.10 | 57 | 1015.5 |
| 20260507142807 | 74 | 95 | 0.0 | 5.0 | 0.00 | 0.10 | 0.10 | 54 | 1015.5 |
| 20260507142308 | 75 | 290 | 0.0 | 1.0 | 0.00 | 0.10 | 0.10 | 55 | 1015.7 |
| 20260507141806 | 74 | 289 | 0.0 | 3.0 | 0.00 | 0.10 | 0.10 | 56 | 1015.8 |
| 20260507141309 | 74 | 289 | 0.0 | 3.0 | 0.00 | 0.10 | 0.10 | 58 | 1015.8 |
| 20260507135806 | 73 | 274 | 0.0 | 0.0 | 0.00 | 0.10 | 0.10 | 58 | 1016.1 |
| 20260507135307 | 73 | 274 | 0.0 | 1.0 | 0.00 | 0.10 | 0.10 | 57 | 1016.1 |
| 20260507134804 | 73 | 274 | 0.0 | 5.0 | 0.00 | 0.10 | 0.10 | 56 | 1016.2 |
| 20260507134303 | 73 | 290 | 0.0 | 5.0 | 0.00 | 0.10 | 0.10 | 58 | 1016.2 |
| 20260507133302 | 72 | 235 | 1.0 | 6.0 | 0.00 | 0.10 | 0.10 | 58 | 1016.3 |
| 20260507132803 | 73 | 285 | 0.0 | 6.0 | 0.00 | 0.10 | 0.10 | 59 | 1016.3 |
| 20260507131802 | 72 | 321 | 0.0 | 4.0 | 0.00 | 0.10 | 0.10 | 61 | 1016.5 |
| 20260507131302 | 72 | 287 | 0.0 | 2.0 | 0.00 | 0.10 | 0.10 | 61 | 1016.6 |
| 20260507130300 | 72 | 219 | 0.0 | 3.0 | 0.00 | 0.10 | 0.10 | 59 | 1016.6 |
| 20260507125758 | 72 | 204 | 0.0 | 3.0 | 0.00 | 0.10 | 0.10 | 58 | 1016.6 |
| 20260507124757 | 72 | 324 | 0.0 | 4.0 | 0.00 | 0.10 | 0.10 | 57 | 1016.6 |
| 20260507123756 | 72 | 262 | 0.0 | 4.0 | 0.00 | 0.10 | 0.10 | 60 | 1016.6 |
| 20260507122757 | 72 | 275 | 0.0 | 1.0 | 0.00 | 0.10 | 0.10 | 58 | 1016.6 |
| 20260507122256 | 72 | 274 | 1.0 | 5.0 | 0.00 | 0.10 | 0.10 | 58 | 1016.5 |
| 20260507121753 | 72 | 329 | 1.0 | 5.0 | 0.00 | 0.10 | 0.10 | 60 | 1016.6 |
| 20260507121251 | 72 | 262 | 0.0 | 5.0 | 0.00 | 0.10 | 0.10 | 60 | 1016.5 |
| 20260507120752 | 72 | 265 | 0.0 | 5.0 | 0.00 | 0.10 | 0.10 | 58 | 1016.5 |
| 20260507120251 | 72 | 317 | 0.0 | 5.0 | 0.00 | 0.10 | 0.10 | 56 | 1016.6 |
| 20260507115248 | 72 | 274 | 0.0 | 5.0 | 0.00 | 0.10 | 0.10 | 54 | 1016.7 |
| 20260507114248 | 72 | 98 | 0.0 | 3.0 | 0.00 | 0.10 | 0.10 | 54 | 1016.7 |
| 20260507113745 | 73 | 205 | 0.0 | 5.0 | 0.00 | 0.10 | 0.10 | 56 | 1016.7 |
| 20260507111742 | 71 | 288 | 2.0 | 7.0 | 0.00 | 0.10 | 0.10 | 56 | 1016.8 |
| 20260507111242 | 71 | 248 | 2.0 | 9.0 | 0.00 | 0.10 | 0.10 | 56 | 1016.8 |
| 20260507110742 | 71 | 249 | 2.0 | 9.0 | 0.00 | 0.10 | 0.10 | 56 | 1016.8 |
| 20260507110241 | 71 | 278 | 1.0 | 7.0 | 0.00 | 0.10 | 0.10 | 55 | 1016.8 |
| 20260507105742 | 71 | 297 | 1.0 | 5.0 | 0.00 | 0.10 | 0.10 | 56 | 1016.8 |
| 20260507105241 | 71 | 255 | 0.0 | 5.0 | 0.00 | 0.10 | 0.10 | 57 | 1016.9 |
| 20260507104742 | 70 | 191 | 1.0 | 6.0 | 0.00 | 0.10 | 0.10 | 58 | 1016.9 |
| 20260507104240 | 70 | 165 | 1.0 | 6.0 | 0.00 | 0.10 | 0.10 | 61 | 1016.9 |
| 20260507103737 | 70 | 289 | 1.0 | 6.0 | 0.00 | 0.10 | 0.10 | 60 | 1016.9 |
| 20260507103236 | 69 | 109 | 0.0 | 4.0 | 0.00 | 0.10 | 0.10 | 63 | 1017.0 |
| 20260507102733 | 70 | 124 | 0.0 | 3.0 | 0.00 | 0.10 | 0.10 | 65 | 1017.0 |
| 20260507102233 | 69 | 139 | 1.0 | 3.0 | 0.00 | 0.10 | 0.10 | 65 | 1017.0 |
| 20260507101736 | 70 | 97 | 1.0 | 3.0 | 0.00 | 0.10 | 0.10 | 63 | 1017.1 |
| 20260507100723 | 70 | 186 | 0.0 | 3.0 | 0.00 | 0.10 | 0.10 | 66 | 1017.2 |
| 20260507100223 | 70 | 167 | 0.0 | 3.0 | 0.00 | 0.10 | 0.10 | 65 | 1017.2 |
| 20260507095223 | 70 | 146 | 2.0 | 7.0 | 0.00 | 0.10 | 0.10 | 66 | 1017.1 |
| 20260507094722 | 70 | 278 | 0.0 | 5.0 | 0.00 | 0.10 | 0.10 | 66 | 1017.0 |
| 20260507094223 | 69 | 137 | 0.0 | 6.0 | 0.00 | 0.10 | 0.10 | 64 | 1017.2 |
| 20260507093722 | 69 | 138 | 0.0 | 6.0 | 0.00 | 0.10 | 0.10 | 67 | 1017.2 |
| 20260507092719 | 68 | 189 | 1.0 | 6.0 | 0.00 | 0.10 | 0.10 | 67 | 1017.2 |
| 20260507092218 | 67 | 278 | 2.0 | 6.0 | 0.00 | 0.10 | 0.10 | 67 | 1017.3 |
| 20260507091716 | 67 | 278 | 2.0 | 6.0 | 0.00 | 0.10 | 0.10 | 67 | 1017.3 |
| 20260507091215 | 68 | 290 | 2.0 | 7.0 | 0.00 | 0.10 | 0.10 | 70 | 1017.3 |
| 20260507090716 | 68 | 275 | 1.0 | 7.0 | 0.00 | 0.10 | 0.10 | 69 | 1017.4 |
| 20260507090215 | 67 | 276 | 1.0 | 5.0 | 0.00 | 0.10 | 0.10 | 70 | 1017.4 |
| 20260507085716 | 68 | 281 | 1.0 | 5.0 | 0.00 | 0.10 | 0.10 | 72 | 1017.4 |
| 20260507085214 | 67 | 308 | 0.0 | 3.0 | 0.00 | 0.10 | 0.10 | 72 | 1017.5 |
| 20260507084711 | 67 | 231 | 1.0 | 6.0 | 0.00 | 0.10 | 0.10 | 73 | 1017.4 |
| 20260507084213 | 66 | 278 | 1.0 | 6.0 | 0.00 | 0.10 | 0.10 | 73 | 1017.4 |
| 20260507083709 | 66 | 274 | 0.0 | 5.0 | 0.00 | 0.10 | 0.10 | 74 | 1017.4 |
| 20260507083204 | 65 | 302 | 2.0 | 7.0 | 0.00 | 0.10 | 0.10 | 75 | 1017.3 |
| 20260507082657 | 65 | 319 | 2.0 | 7.0 | 0.00 | 0.10 | 0.10 | 76 | 1017.3 |
| 20260507082151 | 65 | 276 | 1.0 | 6.0 | 0.00 | 0.10 | 0.10 | 77 | 1017.4 |
| 20260507081645 | 64 | 274 | 2.0 | 5.0 | 0.00 | 0.10 | 0.10 | 77 | 1017.4 |
| 20260507081141 | 64 | 283 | 3.0 | 9.0 | 0.00 | 0.10 | 0.10 | 76 | 1017.5 |
| 20260507080634 | 65 | 263 | 2.0 | 9.0 | 0.00 | 0.10 | 0.10 | 76 | 1017.5 |
| 20260507080127 | 65 | 290 | 1.0 | 5.0 | 0.00 | 0.10 | 0.10 | 78 | 1017.5 |
| 20260507075621 | 65 | 181 | 0.0 | 3.0 | 0.00 | 0.10 | 0.10 | 80 | 1017.6 |
| 20260507075115 | 64 | 264 | 0.0 | 3.0 | 0.00 | 0.10 | 0.10 | 80 | 1017.5 |
| 20260507074610 | 64 | 264 | 1.0 | 4.0 | 0.00 | 0.10 | 0.10 | 81 | 1017.4 |
| 20260507073603 | 63 | 160 | 0.0 | 4.0 | 0.00 | 0.10 | 0.10 | 82 | 1017.5 |
| 20260507073055 | 63 | 161 | 0.0 | 1.0 | 0.00 | 0.10 | 0.10 | 82 | 1017.5 |
| 20260507072551 | 63 | 295 | 0.0 | 1.0 | 0.00 | 0.10 | 0.10 | 82 | 1017.4 |
| 20260507072049 | 63 | 295 | 0.0 | 1.0 | 0.00 | 0.10 | 0.10 | 82 | 1017.4 |
| 20260507071045 | 64 | 340 | 0.0 | 1.0 | 0.00 | 0.10 | 0.10 | 82 | 1017.4 |
| 20260507070543 | 64 | 1 | 0.0 | 1.0 | 0.00 | 0.10 | 0.10 | 83 | 1017.4 |
| 20260507070043 | 63 | 1 | 0.0 | 2.0 | 0.00 | 0.10 | 0.10 | 83 | 1017.4 |
| 20260507065039 | 63 | 1 | 0.0 | 0.0 | 0.00 | 0.10 | 0.10 | 85 | 1017.3 |
| 20260507064541 | 62 | 1 | 0.0 | 0.0 | 0.00 | 0.10 | 0.10 | 85 | 1017.3 |
| 20260507064036 | 62 | 1 | 0.0 | 0.0 | 0.00 | 0.10 | 0.10 | 85 | 1017.2 |
| 20260507063533 | 62 | 1 | 0.0 | 0.0 | 0.00 | 0.10 | 0.10 | 85 | 1017.2 |
| 20260507062529 | 62 | 1 | 0.0 | 2.0 | 0.00 | 0.10 | 0.10 | 85 | 1017.2 |
| 20260507062027 | 62 | 1 | 0.0 | 2.0 | 0.00 | 0.10 | 0.10 | 85 | 1017.2 |
| 20260507061525 | 62 | 115 | 0.0 | 0.0 | 0.00 | 0.10 | 0.10 | 86 | 1017.2 |
| 20260507061026 | 62 | 116 | 0.0 | 0.0 | 0.00 | 0.10 | 0.10 | 86 | 1017.2 |
| 20260507060524 | 62 | 116 | 0.0 | 0.0 | 0.00 | 0.10 | 0.10 | 86 | 1017.3 |
| 20260507060025 | 62 | 119 | 0.0 | 1.0 | 0.00 | 0.10 | 0.10 | 87 | 1017.3 |
| 20260507055525 | 61 | 120 | 0.0 | 2.0 | 0.00 | 0.10 | 0.10 | 88 | 1017.2 |
| 20260507054525 | 60 | 160 | 0.0 | 0.0 | 0.00 | 0.10 | 0.10 | 90 | 1017.2 |
| 20260507054031 | 60 | 161 | 0.0 | 0.0 | 0.00 | 0.10 | 0.10 | 90 | 1017.2 |
| 20260507053523 | 60 | 161 | 0.0 | 0.0 | 0.00 | 0.10 | 0.10 | 92 | 1017.0 |
| 20260507053023 | 59 | 161 | 0.0 | 0.0 | 0.00 | 0.10 | 0.10 | 92 | 1017.0 |
| 20260507052521 | 59 | 161 | 0.0 | 0.0 | 0.00 | 0.10 | 0.10 | 92 | 1016.9 |
| 20260507052018 | 58 | 180 | 0.0 | 0.0 | 0.00 | 0.10 | 0.10 | 92 | 1016.9 |
| 20260507051519 | 58 | 180 | 0.0 | 0.0 | 0.00 | 0.10 | 0.10 | 92 | 1016.9 |
| 20260507051015 | 58 | 181 | 0.0 | 0.0 | 0.00 | 0.10 | 0.10 | 92 | 1017.0 |
| 20260507050513 | 58 | 181 | 0.0 | 0.0 | 0.00 | 0.10 | 0.10 | 92 | 1017.0 |
| 20260507050013 | 58 | 181 | 0.0 | 0.0 | 0.00 | 0.10 | 0.10 | 92 | 1017.1 |
| 20260507045511 | 58 | 181 | 0.0 | 0.0 | 0.00 | 0.10 | 0.10 | 91 | 1016.9 |
| 20260507045008 | 58 | 181 | 0.0 | 0.0 | 0.00 | 0.10 | 0.10 | 92 | 1016.8 |
| 20260507044511 | 58 | 181 | 0.0 | 0.0 | 0.00 | 0.10 | 0.10 | 92 | 1016.8 |
| 20260507044008 | 58 | 181 | 0.0 | 0.0 | 0.00 | 0.10 | 0.10 | 91 | 1016.7 |
| 20260507043505 | 58 | 181 | 0.0 | 0.0 | 0.00 | 0.10 | 0.10 | 91 | 1016.8 |
| 20260507043006 | 58 | 181 | 0.0 | 0.0 | 0.00 | 0.10 | 0.10 | 91 | 1016.6 |
| 20260507042505 | 58 | 245 | 0.0 | 0.0 | 0.00 | 0.10 | 0.10 | 91 | 1016.6 |
| 20260507042005 | 58 | 245 | 0.0 | 0.0 | 0.00 | 0.10 | 0.10 | 91 | 1016.6 |
| 20260507041005 | 58 | 245 | 0.0 | 0.0 | 0.00 | 0.10 | 0.10 | 91 | 1016.5 |
| 20260507040504 | 58 | 245 | 0.0 | 0.0 | 0.00 | 0.10 | 0.10 | 91 | 1016.4 |
| 20260507040004 | 58 | 245 | 0.0 | 0.0 | 0.00 | 0.10 | 0.10 | 91 | 1016.3 |
| 20260507035504 | 58 | 245 | 0.0 | 0.0 | 0.00 | 0.10 | 0.10 | 91 | 1016.4 |
| 20260507035002 | 58 | 245 | 0.0 | 0.0 | 0.00 | 0.10 | 0.10 | 91 | 1016.4 |
| 20260507034000 | 58 | 245 | 0.0 | 0.0 | 0.00 | 0.10 | 0.10 | 91 | 1016.3 |
| 20260507033501 | 58 | 245 | 0.0 | 0.0 | 0.00 | 0.10 | 0.10 | 91 | 1016.3 |
| 20260507033000 | 58 | 245 | 0.0 | 0.0 | 0.00 | 0.10 | 0.10 | 91 | 1016.2 |
| 20260507032500 | 58 | 245 | 0.0 | 0.0 | 0.00 | 0.10 | 0.10 | 90 | 1016.2 |
| 20260507032000 | 58 | 245 | 0.0 | 0.0 | 0.00 | 0.10 | 0.10 | 90 | 1016.2 |
| 20260507031000 | 58 | 245 | 0.0 | 0.0 | 0.00 | 0.10 | 0.10 | 90 | 1016.3 |
| 20260507030455 | 58 | 246 | 0.0 | 0.0 | 0.00 | 0.10 | 0.10 | 90 | 1016.3 |
| 20260507025956 | 58 | 246 | 0.0 | 0.0 | 0.00 | 0.10 | 0.10 | 90 | 1016.1 |
| 20260507024457 | 58 | 246 | 0.0 | 0.0 | 0.00 | 0.10 | 0.10 | 90 | 1016.3 |
| 20260507023005 | 58 | 140 | 0.0 | 1.0 | 0.00 | 0.10 | 0.10 | 90 | 1016.3 |
| 20260507022451 | 58 | 134 | 0.0 | 0.0 | 0.00 | 0.10 | 0.10 | 90 | 1016.3 |
| 20260507021951 | 58 | 133 | 0.0 | 0.0 | 0.00 | 0.11 | 0.10 | 90 | 1016.3 |
| 20260507021450 | 59 | 133 | 0.0 | 0.0 | 0.00 | 0.11 | 0.10 | 90 | 1016.2 |
| 20260507020950 | 59 | 134 | 0.0 | 0.0 | 0.01 | 0.11 | 0.10 | 89 | 1016.1 |
| 20260507020449 | 59 | 138 | 0.0 | 0.0 | 0.02 | 0.11 | 0.10 | 89 | 1016.2 |
| 20260507015955 | 59 | 138 | 0.0 | 0.0 | 0.02 | 0.11 | 0.10 | 89 | 1016.2 |
| 20260507015444 | 59 | 138 | 0.0 | 2.0 | 0.03 | 0.11 | 0.10 | 89 | 1016.2 |
| 20260507014936 | 59 | 138 | 0.0 | 3.0 | 0.03 | 0.11 | 0.10 | 89 | 1016.1 |
| 20260507014431 | 59 | 171 | 0.0 | 4.0 | 0.03 | 0.11 | 0.10 | 89 | 1016.2 |
| 20260507013925 | 59 | 182 | 0.0 | 4.0 | 0.03 | 0.11 | 0.10 | 89 | 1016.1 |
| 20260507013425 | 59 | 200 | 0.0 | 2.0 | 0.04 | 0.11 | 0.10 | 89 | 1016.2 |